Regional Weather Roundup
Issued by NWS Boston, MA

Current Version | Previous Version | Text Only | Print | Product List | Glossary Off
Versions: 1 2 3 4 5 6 7 8 9 10 11 12 13 14 15 16 17 18 19 20 21 22 23 24 25 26 27 28 29 30 31 32 33 34 35 36 37 38 39 40 41 42 43 44 45 46 47 48 49 50
005 ASUS41 KBOX 280810 RWRBOX REGIONAL WEATHER ROUNDUP NATIONAL WEATHER SERVICE TAUNTON MA 400 AM EDT SUN MAY 28 2017 NOTE: "FAIR" INDICATES FEW OR NO CLOUDS BELOW 12,000 FEET WITH NO SIGNIFICANT WEATHER AND/OR OBSTRUCTIONS TO VISIBILITY. MAZALL-280900- EASTERN MASSACHUSETTS CITY SKY/WX TMP DP RH WIND PRES REMARKS BOSTON MOCLDY 56 52 86 SW9 29.92R BEVERLY CLEAR 53 51 93 CALM 29.91R LAWRENCE CLEAR 52 49 89 CALM 29.93S BEDFORD CLOUDY 54 50 86 CALM 29.90R BLUE HILL N/A 52 50 93 S13 29.91R NORWOOD CLOUDY 55 53 93 S6 29.91S MARSHFIELD PTCLDY 54 52 94 SW6 29.92S PLYMOUTH PTCLDY 53 50 89 SW7 29.93R TAUNTON MOCLDY 51 50 96 CALM 29.93R NEW BEDFORD MOCLDY 50 49 96 CALM 29.94R $$ MAZALL-280900- CAPE COD AND THE ISLANDS CITY SKY/WX TMP DP RH WIND PRES REMARKS FALMOUTH N/A N/A N/A N/A MISG N/A HYANNIS PTCLDY 49 47 93 CALM 29.93R CHATHAM MOCLDY 50 48 93 S3 29.95R PROVINCETOWN CLEAR 52 48 86 S5 29.94S NANTUCKET CLEAR 46 44 93 SE6 29.93S MARTHAS VNYRD CLEAR 49 46 90 S7 29.93F $$ MAZALL-280900- CENTRAL AND WESTERN MASSACHUSETTS CITY SKY/WX TMP DP RH WIND PRES REMARKS WORCESTER CLOUDY 56 52 86 W5 29.91F FITCHBURG CLOUDY 57 52 83 CALM 29.91F ORANGE CLOUDY 56 56 100 CALM 29.90F SPRINGFIELD CLOUDY 57 53 88 CALM 29.90S WESTFIELD CLOUDY 57 56 96 S3 29.91 NORTH ADAMS CLOUDY 56 54 93 CALM 29.90F $$ RIZALL-280900- RHODE ISLAND CITY SKY/WX TMP DP RH WIND PRES REMARKS PROVIDENCE CLOUDY 55 55 100 S7 29.94R NEWPORT CLOUDY 54 54 100 S7 29.94R BLOCK ISLAND CLOUDY 55 53 93 S7 29.94S SMITHFIELD CLOUDY 54 52 93 CALM 29.93R WESTERLY CLOUDY 57 55 93 SE5 29.93F $$ CTZALL-280900- CONNECTICUT CITY SKY/WX TMP DP RH WIND PRES REMARKS BRADLEY INTL CLOUDY 57 54 89 S5 29.91F HARTFORD CLOUDY 58 53 84 S5 29.91F BRIDGEPORT CLOUDY 60 55 83 E3 29.91F DANBURY CLOUDY 56 55 97 SE5 29.91F GROTON CLOUDY 56 52 86 E3 29.92F NEW HAVEN CLOUDY 57 54 89 CALM 29.91F CHESTER CLOUDY 55 54 94 CALM 29.92F MERIDEN CLOUDY 56 54 93 CALM 29.92F WILLIMANTIC CLOUDY 58 53 84 S3 29.92F OXFORD N/A 55 52 88 CALM 29.93F $$ MEZ002-015-021-024-NHZ003-005-008-011-012-014-VTZ005-008-280900- NORTHERN NEW ENGLAND CITY SKY/WX TMP DP RH WIND PRES REMARKS PORTLAND ME PTCLDY 46 44 93 CALM 29.95R BANGOR ME PTCLDY 42 41 96 CALM 29.95R CONCORD NH CLEAR 48 45 89 CALM 29.92S MANCHESTER NH PTCLDY 51 46 83 NE3 29.91R NASHUA NH MOCLDY 52 50 93 CALM 29.92S PORTSMOUTH NH PTCLDY 48 47 94 NE5 29.92R JAFFREY NH CLOUDY 56 56 100 CALM 29.91F KEENE NH CLOUDY 55 54 96 CALM 29.90F BURLINGTON VT MOCLDY 52 50 93 CALM 29.90S MT. WASHINGTON FOG 37 37 100 NW14 N/A VSB 1/8 WCI 29 $$ NYZ052-076-280900- EASTERN NEW YORK CITY SKY/WX TMP DP RH WIND PRES REMARKS ALBANY CLOUDY 61 55 81 SE3 29.88F NEW YORK CITY CLEAR 60 56 86 E6 29.89F $$ ANZALL-280900- MARINE OBSERVATIONS STATION/POSITION TIME TEMP WIND PRES VSBY WAVE AIR SEA DIR/SP/G HT/PER (UTC) (F) (DEG/KT/KT) (MB) (MI) (FT/S) BOSTON BUOY 0650 54 53 150/ 12/ 14 1011.7 2/ 9 BUZZARDS BAY 0700 54 160/ 11/ 12 1013.9S NANTUCKET SOUND 0750 53 1013.4S 1/ 9 MASS BAY-STELLWA 0704 53 51 160/ 10/ 12 1012.0F 2/ 3 ISLE OF SHOALS 0700 51 120/ 9/ 10 1012.8F S OF BLOCK IS 0755 54 N/A 3/ 8 $$ ......................KEY......................... SKY/WX - SKY CONDITION/PRESENT WEATHER TMP - TEMPERATURE IN FAHRENHEIT DWPT - DEWPOINT IN FAHRENHEIT RH - RELATIVE HUMIDITY IN PERCENT WIND - DIRECTION AND SPEED IN MPH PRES - MEAN SEA LEVEL PRESSURE IN INCHES OF HG WCI - WIND CHILL INDEX VSB - VISIBILITY IN MILES HX - HEAT INDEX TC - TEMPERATURE IN CELSIUS VRB - VARIABLE WIND DIRECTION N/A - NOT AVAILABLE

USA.gov is the U.S. government's official web portal to all federal, state and local government web resources and services.